York, PA

8:49 AM EDT on May 26, 2018 (GMT -0400)
York

Weather History for KTHV - July, 2013

Change the Weather History Date:

Sunday, July 14, 2013

  Actual Average Record
Temperature  
Mean Temperature 80 °F -  
Max Temperature 88 °F 83 °F 93 °F (2016)
Min Temperature 71 °F 62 °F 51 °F (2001)
Cooling Degree Days 14    
Growing Degree Days 30 (Base 50)    
Moisture  
Dew Point 70 °F    
Average Humidity 75    
Maximum Humidity 94    
Minimum Humidity 53    
Precipitation  
Precipitation 0.00 in - - ()
Sea Level Pressure  
Sea Level Pressure 30.31 in    
Wind  
Wind Speed 2 mph (SSW)    
Max Wind Speed 7 mph    
Max Gust Speed -    
Visibility 10 miles    
Events      
Averages and records for this station are not official NWS values.
T = Trace of Precipitation, MM = Missing Value Source: NWS Daily Summary

Daily Weather History Graph

Daily Weather History Graph

Search for Another Location

Airport or City:

Astronomy

Jul. 14, 2013 Rise Set
Actual Time 5:50 AM EDT 8:35 PM EDT
Civil Twilight 5:19 AM EDT 9:07 PM EDT
Nautical Twilight 4:39 AM EDT 9:47 PM EDT
Astronomical Twilight 3:53 AM EDT 10:32 PM EDT
Moon 12:05 PM EDT (7/14) 11:47 PM EDT (7/14)
Length of Visible Light 15h 48m
Length of Day
14h 44m
Waxing Crescent, 35% of the Moon is Illuminated
Jul 14
Waxing Crescent
Jul 15
First Quarter
Jul 22
Full
Jul 29
Last Quarter
Aug 6
New

Hourly Weather History & Observations

Time (EDT) Temp. Heat Index Dew Point Humidity Pressure Visibility Wind Dir Wind Speed Gust Speed Precip Events Conditions
12:53 AM 73.9 °F - 70.0 °F 87% 30.30 in 10.0 mi Calm Calm - N/A   Clear
1:53 AM 73.0 °F - 70.0 °F 90% 30.29 in 10.0 mi South 4.6 mph - N/A   Clear
2:53 AM 73.9 °F - 70.0 °F 87% 30.29 in 10.0 mi Calm Calm - N/A   Clear
3:30 AM 73.4 °F - 69.8 °F 88% 30.30 in 10.0 mi South 3.5 mph - N/A   Mostly Cloudy
3:42 AM 73.4 °F - 69.8 °F 88% 30.30 in 10.0 mi Variable 5.8 mph - N/A   Mostly Cloudy
3:53 AM 73.9 °F - 70.0 °F 87% 30.29 in 9.0 mi Calm Calm - N/A   Mostly Cloudy
4:09 AM 73.4 °F - 69.8 °F 88% 30.29 in 8.0 mi South 3.5 mph - N/A   Scattered Clouds
4:53 AM 73.9 °F - 70.0 °F 87% 30.30 in 8.0 mi Variable 3.5 mph - N/A   Clear
5:53 AM 72.0 °F - 69.1 °F 91% 30.31 in 7.0 mi Calm Calm - N/A   Scattered Clouds
6:01 AM 71.6 °F - 69.8 °F 94% 30.31 in 7.0 mi Calm Calm - N/A   Mostly Cloudy
6:39 AM 73.4 °F - 69.8 °F 88% 30.32 in 6.0 mi Calm Calm - N/A   Overcast
6:53 AM 73.9 °F - 70.0 °F 87% 30.32 in 7.0 mi Calm Calm - N/A   Overcast
7:49 AM 77.0 °F - 71.6 °F 83% 30.34 in 10.0 mi Calm Calm - N/A   Scattered Clouds
7:53 AM 77.0 °F - 71.1 °F 82% 30.33 in 10.0 mi Calm Calm - N/A   Partly Cloudy
8:07 AM 77.0 °F - 71.6 °F 83% 30.34 in 10.0 mi Calm Calm - N/A   Mostly Cloudy
8:27 AM 78.8 °F - 71.6 °F 78% 30.35 in 10.0 mi Calm Calm - N/A   Mostly Cloudy
8:53 AM 79.0 °F - 71.1 °F 77% 30.35 in 10.0 mi Calm Calm - N/A   Overcast
9:34 AM 78.8 °F - 69.8 °F 74% 30.36 in 10.0 mi West 3.5 mph - N/A   Mostly Cloudy
9:53 AM 81.0 °F 84.1 °F 69.1 °F 67% 30.35 in 10.0 mi Variable 3.5 mph - N/A   Mostly Cloudy
10:39 AM 80.6 °F 83.2 °F 68.0 °F 65% 30.36 in 10.0 mi Variable 6.9 mph - N/A   Mostly Cloudy
10:53 AM 82.0 °F 85.5 °F 69.1 °F 65% 30.35 in 10.0 mi Calm Calm - N/A   Scattered Clouds
11:53 AM 82.9 °F 86.5 °F 69.1 °F 63% 30.35 in 10.0 mi SE 4.6 mph - N/A   Clear
12:53 PM 86.0 °F 90.1 °F 69.1 °F 57% 30.34 in 10.0 mi SW 6.9 mph - N/A   Scattered Clouds
1:53 PM 87.1 °F 90.6 °F 68.0 °F 53% 30.32 in 10.0 mi Variable 4.6 mph - N/A   Clear
2:53 PM 87.1 °F 91.3 °F 69.1 °F 55% 30.31 in 10.0 mi WSW 4.6 mph - N/A   Scattered Clouds
3:53 PM 87.1 °F 91.3 °F 69.1 °F 55% 30.30 in 10.0 mi SW 6.9 mph - N/A   Partly Cloudy
4:53 PM 88.0 °F 92.1 °F 69.1 °F 53% 30.29 in 10.0 mi Variable 5.8 mph - N/A   Clear
5:53 PM 86.0 °F 89.4 °F 68.0 °F 55% 30.29 in 10.0 mi Calm Calm - N/A   Clear
6:53 PM 87.1 °F 92.0 °F 70.0 °F 57% 30.28 in 10.0 mi Calm Calm - N/A   Clear
7:53 PM 84.0 °F 87.8 °F 69.1 °F 61% 30.27 in 10.0 mi SSW 4.6 mph - N/A   Clear
8:53 PM 79.0 °F - 70.0 °F 74% 30.28 in 10.0 mi SSW 4.6 mph - N/A   Clear
9:53 PM 79.0 °F - 71.1 °F 77% 30.29 in 10.0 mi South 5.8 mph - N/A   Clear
10:53 PM 78.1 °F - 71.1 °F 79% 30.30 in 10.0 mi SSW 3.5 mph - N/A   Clear
11:53 PM 77.0 °F - 71.1 °F 82% 30.30 in 10.0 mi SSW 3.5 mph - N/A   Clear